Regional Weather Roundup
Issued by NWS Jackson, KY

Home | Current Version | Previous Version | Graphics & Text | Print | Product List | Glossary On
Versions: 1 2 3 4 5 6 7 8 9 10 11 12 13 14 15 16 17 18 19 20 21 22 23 24 25 26 27 28 29 30 31 32 33 34 35 36 37 38 39 40 41 42 43 44 45 46 47 48 49 50
000
ASUS43 KJKL 190119
RWRJKL

EAST KENTUCKY HOURLY WEATHER ROUNDUP
NATIONAL WEATHER SERVICE JACKSON KY
900 PM EDT THU SEP 18 2014

NOTE: "FAIR" INDICATES FEW OR NO CLOUDS BELOW 12,000 FEET WITH
NO SIGNIFICANT WEATHER AND/OR OBSTRUCTIONS TO VISIBILITY.

* THESE REPORTS ARE NOT UNDER NWS QUALITY CONTROL AND MAY NOT
  REPORT WEATHER SUCH AS PRECIPITATION AND FOG.

KYZ079-080-083-085-087-088-110-112-115-119-120-190200
...EASTERN KENTUCKY...

CITY           SKY/WX    TMP DP  RH WIND       PRES   REMARKS
JACKSON        CLEAR     61  53  75 CALM      30.08R
LONDON         CLEAR     64  55  72 NE5       30.06R
MONTICELLO*    CLEAR     60  57  89 CALM      30.06R
MIDDLESBORO*   CLEAR     62  58  86 CALM      30.06R
HARLAN APT*    CLEAR     61  55  82 MISG      30.06R
HAZARD APT*    CLEAR     61  57  88 CALM      30.08R
PIKEVILLE APT* CLEAR     61  54  77 NE5       30.09
BIG SANDY*     CLEAR     60  55  84 NE5       30.08R
MOREHEAD APT*  PTCLDY    63  50  63 CALM      30.11R
ASHLAND*       CLEAR     59  50  72 NE3       30.08R
$$

KYZ035-036-041-042-044-050-067-078-099-190200
...CENTRAL KENTUCKY...

CITY           SKY/WX    TMP DP  RH WIND       PRES   REMARKS
MT STERLING*   CLEAR     63  54  72 E6        30.09R
FLEMING/MASON* CLEAR     61  50  67 E5        30.10R
DANVILLE*      CLEAR     57  52  82 CALM      30.08R
RICHMOND*      CLEAR     61  52  72 E3        30.07R
LEXINGTON      CLEAR     63  51  65 NE8       30.07R
FRANKFORT      CLEAR     60  52  74 CALM      30.06R
$$

KYZ091>093-OHZ055-061-077-WVZ005-015-034-035-042-190200
...SOUTHERN OHIO/WEST VIRGINIA...

CITY           SKY/WX    TMP DP  RH WIND       PRES   REMARKS
COVINGTON      CLEAR     67  44  43 NE7       30.09R
COLUMBUS       PTCLDY    63  48  58 E3        30.11R
DAYTON         CLEAR     62  49  62 NE6       30.12R
WILMINGTON     CLEAR     59  46  62 E6        30.11R
HUNTINGTON     CLEAR     60  53  77 NE3       30.07R
CHARLESTON     CLOUDY    62  58  86 N3        30.08R
PINEVILLE*     PTCLDY    61  60  98 MISG      30.14R
BECKLEY        CLOUDY    60  52  74 NE5       30.11R
BLUEFIELD      CLOUDY    64  51  62 CALM      30.12R
$$

VAZ002-007-008-TNZ017-027-036-066-071-190200
...SOUTHWEST VIRGINIA/EAST TENNESSEE...

CITY           SKY/WX    TMP DP  RH WIND       PRES   REMARKS
WISE*          CLOUDY    61  52  72 CALM      30.12R
JONESVILLE*    CLEAR     61  59  94 CALM      30.08R
ABINGDON*      CLOUDY    65  56  73 CALM      30.08R
BRISTOL        MOCLDY    65  54  67 NE3       30.05R
KNOXVILLE      MOCLDY    68  57  68 NE5       30.00R
OAK RIDGE      MOCLDY    67  61  81 CALM      30.03R
CROSSVILLE     MOCLDY    65  58  78 NE5       30.06R
NASHVILLE      CLOUDY    71  60  68 N5        30.01R
$$

...KEY TO REMARKS...
VSB - VISIBILITY IN MILES
WCI - WIND CHILL INDEX
HX  - HEAT INDEX

$$


USA.gov is the U.S. government's official web portal to all federal, state and local government web resources and services.